sat.trackr.live / text

‹ back to catalog

STARLINK-36656

NORAD 67841 · 2026-033W

PAYLOAD ACTIVE UNKNOWN

§ Identity

Operator
Country
US
Launch date
2026-02-16
Launch site
AFETR
Launch vehicle
Mass (kg)
RCS (m²)

Purposes: comms

External: N2YO · Heavens-Above · Gunter

§ Orbital elements

Epoch: 2026-09-19T08:34:34.021344Z

Period
94.27 min
Inclination
43.0025°
Eccentricity
0.0001164
Mean motion
15.27585337 rev/d
Perigee alt
482.2 km
Apogee alt
483.8 km
Semi-major
6,861.2 km
B*
4.7999e-4
RAAN
253.2623°
Arg perigee
265.1157°
Mean anomaly
94.9562°
Rev number
3,429

§ Raw data

STARLINK-366561 67841U 26033W   26262.35733821  .00012971  00000+0  47999-3 0  99902 67841  43.0025 253.2623 0001164 265.1157  94.9562 15.27585337 34293

JSON: /api/v1/satellites/67841 · /tle

For live sub-satellite position, see the globe view (requires WebGL).

§ Visibility from observer

Set your observer location to see the next 7 days of passes ≥ 10°. The values pass through the URL so the page stays shareable.

No JS? Fill the form by hand. The geolocation button needs JavaScript.